"Period start","avg(HW err(1)/warn(2) (#))","avg(Visibility (m))","avg(Weather code (#))","avg(Precip intensity (mm/h))","min(HW err(1)/warn(2) (#))","max(HW err(1)/warn(2) (#))","std(HW err(1)/warn(2) (#))","med(HW err(1)/warn(2) (#))","min(Visibility (m))","max(Visibility (m))","std(Visibility (m))","med(Visibility (m))","min(Weather code (#))","max(Weather code (#))","std(Weather code (#))","med(Weather code (#))","min(Precip intensity (mm/h))","max(Precip intensity (mm/h))","std(Precip intensity (mm/h))","med(Precip intensity (mm/h))"
2017-06-13 00:00:00,2,40850,0,0.00,2,2,0,2,27314,50000,7643,39542,0,0,0,0,0.00,0.00,0.00,0.00
2017-06-13 00:10:00,2,45010,0,0.00,2,2,0,2,36042,50000,4736,44928,0,0,0,0,0.00,0.00,0.00,0.00
2017-06-13 00:20:00,2,42358,0,0.00,2,2,0,2,30482,50000,6513,42287,0,0,0,0,0.00,0.00,0.00,0.00
2017-06-13 00:30:00,2,42712,0,0.00,2,2,0,2,30226,50000,8036,45404,0,0,0,0,0.00,0.00,0.00,0.00
2017-06-13 00:40:00,2,39020,0,0.00,2,2,0,2,26187,50000,7838,37288,0,0,0,0,0.00,0.00,0.00,0.00
2017-06-13 00:50:00,2,33324,0,0.00,2,2,0,2,26213,46131,7072,30525,0,0,0,0,0.00,0.00,0.00,0.00
2017-06-13 01:00:00,2,37211,0,0.00,2,2,0,2,26142,50000,8634,38870,0,0,0,0,0.00,0.00,0.00,0.00
2017-06-13 01:10:00,2,43954,0,0.00,2,2,0,2,34267,50000,6348,45632,0,0,0,0,0.00,0.00,0.00,0.00
2017-06-13 01:20:00,2,44063,0,0.00,2,2,0,2,36143,50000,4400,42870,0,0,0,0,0.00,0.00,0.00,0.00
2017-06-13 01:30:00,2,41072,0,0.00,2,2,0,2,32382,50000,8047,40086,0,0,0,0,0.00,0.00,0.00,0.00
2017-06-13 01:40:00,2,33571,0,0.00,2,2,0,2,21248,50000,8599,33472,0,0,0,0,0.00,0.00,0.00,0.00
2017-06-13 01:50:00,2,43232,0,0.00,0,2,1,2,34237,50000,5828,41174,0,0,0,0,0.00,0.00,0.00,0.00
2017-06-13 02:00:00,2,49365,0,0.00,0,2,1,2,45653,50000,1374,50000,0,0,0,0,0.00,0.00,0.00,0.00
2017-06-13 02:10:00,2,45837,0,0.00,2,2,0,2,33126,50000,5264,48296,0,0,0,0,0.00,0.00,0.00,0.00
2017-06-13 02:20:00,2,46668,0,0.00,2,2,0,2,36929,50000,5092,50000,0,0,0,0,0.00,0.00,0.00,0.00
2017-06-13 02:30:00,2,36618,0,0.00,2,2,0,2,22161,48903,8282,36858,0,0,0,0,0.00,0.00,0.00,0.00
2017-06-13 02:40:00,2,42074,0,0.00,2,2,0,2,34298,49586,5311,40958,0,0,0,0,0.00,0.00,0.00,0.00
2017-06-13 02:50:00,2,39555,0,0.00,2,2,0,2,21406,50000,10296,42596,0,0,0,0,0.00,0.00,0.00,0.00
2017-06-13 03:00:00,2,38046,0,0.00,2,2,0,2,26866,49989,7083,38878,0,0,0,0,0.00,0.00,0.00,0.00
2017-06-13 03:10:00,2,42018,0,0.00,2,2,0,2,32332,50000,5949,42230,0,0,0,0,0.00,0.00,0.00,0.00
2017-06-13 03:20:00,2,43121,0,0.00,2,2,0,2,31297,50000,5879,43476,0,0,0,0,0.00,0.00,0.00,0.00
2017-06-13 03:30:00,2,40737,0,0.00,2,2,0,2,30280,50000,6316,40082,0,0,0,0,0.00,0.00,0.00,0.00
2017-06-13 03:40:00,2,43642,0,0.00,0,2,1,2,31859,50000,5566,44682,0,0,0,0,0.00,0.00,0.00,0.00
2017-06-13 03:50:00,0,43432,0,0.00,0,0,0,0,29136,50000,6049,44497,0,0,0,0,0.00,0.00,0.00,0.00
2017-06-13 04:00:00,0,39003,0,0.00,0,2,1,0,30548,50000,5075,39104,0,0,0,0,0.00,0.00,0.00,0.00
2017-06-13 04:10:00,0,45581,0,0.00,0,0,0,0,39020,50000,3927,46180,0,0,0,0,0.00,0.00,0.00,0.00
2017-06-13 04:20:00,0,42997,0,0.00,0,0,0,0,30641,50000,7182,45442,0,0,0,0,0.00,0.00,0.00,0.00
2017-06-13 04:30:00,1,46040,0,0.00,0,2,1,0,40211,50000,3337,45788,0,0,0,0,0.00,0.00,0.00,0.00
2017-06-13 04:40:00,2,43601,0,0.00,0,2,1,2,37718,50000,5081,42962,0,0,0,0,0.00,0.00,0.00,0.00
2017-06-13 04:50:00,2,46116,0,0.00,2,2,0,2,38806,50000,4161,47622,0,0,0,0,0.00,0.00,0.00,0.00
2017-06-13 05:00:00,2,44515,0,0.00,2,2,0,2,30288,50000,6655,48059,0,0,0,0,0.00,0.00,0.00,0.00
2017-06-13 05:10:00,2,45587,0,0.00,2,2,0,2,30155,50000,5919,48572,0,0,0,0,0.00,0.00,0.00,0.00
2017-06-13 05:20:00,2,46848,0,0.00,2,2,0,2,38548,50000,3674,47380,0,0,0,0,0.00,0.00,0.00,0.00
2017-06-13 05:30:00,2,45004,0,0.00,2,2,0,2,34755,50000,5800,47371,0,0,0,0,0.00,0.00,0.00,0.00
2017-06-13 05:40:00,2,48499,0,0.00,0,2,1,2,42458,50000,2361,49902,0,0,0,0,0.00,0.00,0.00,0.00
2017-06-13 05:50:00,2,48842,0,0.00,2,2,0,2,43016,50000,2376,50000,0,0,0,0,0.00,0.00,0.00,0.00
2017-06-13 06:00:00,2,46606,0,0.00,2,2,0,2,36084,50000,4967,49803,0,0,0,0,0.00,0.00,0.00,0.00
2017-06-13 06:10:00,2,43004,0,0.00,2,2,0,2,27675,50000,6697,44176,0,0,0,0,0.00,0.00,0.00,0.00
2017-06-13 06:20:00,2,47598,0,0.00,2,2,0,2,41146,50000,3271,49478,0,0,0,0,0.00,0.00,0.00,0.00
2017-06-13 06:30:00,2,49701,0,0.00,2,2,0,2,47467,50000,756,50000,0,0,0,0,0.00,0.00,0.00,0.00
2017-06-13 06:40:00,2,49879,0,0.00,2,2,0,2,48786,50000,364,50000,0,0,0,0,0.00,0.00,0.00,0.00
2017-06-13 06:50:00,2,49051,0,0.00,2,2,0,2,46105,50000,1490,50000,0,0,0,0,0.00,0.00,0.00,0.00
2017-06-13 07:00:00,2,46674,0,0.00,2,2,0,2,31741,50000,5713,50000,0,0,0,0,0.00,0.00,0.00,0.00
2017-06-13 07:10:00,2,47761,0,0.00,2,2,0,2,36431,50000,4408,50000,0,0,0,0,0.00,0.00,0.00,0.00
2017-06-13 07:20:00,0,47363,0,0.00,0,2,1,0,36978,50000,3907,49356,0,0,0,0,0.00,0.00,0.00,0.00
2017-06-13 07:30:00,1,46612,0,0.00,0,2,1,1,43773,50000,2406,45700,0,0,0,0,0.00,0.00,0.00,0.00
2017-06-13 07:40:00,0,49507,0,0.00,0,0,0,0,46880,50000,1015,50000,0,0,0,0,0.00,0.00,0.00,0.00
2017-06-13 07:50:00,0,49339,0,0.00,0,2,1,0,46021,50000,1207,50000,0,0,0,0,0.00,0.00,0.00,0.00
2017-06-13 08:00:00,2,49611,0,0.00,2,2,0,2,46619,50000,1009,50000,0,0,0,0,0.00,0.00,0.00,0.00
2017-06-13 08:10:00,2,49394,0,0.00,2,2,0,2,46695,50000,1104,50000,0,0,0,0,0.00,0.00,0.00,0.00
2017-06-13 08:20:00,2,49909,0,0.00,2,2,0,2,49093,50000,272,50000,0,0,0,0,0.00,0.00,0.00,0.00
2017-06-13 08:30:00,2,48570,0,0.00,2,2,0,2,44348,50000,2228,50000,0,0,0,0,0.00,0.00,0.00,0.00
2017-06-13 08:40:00,2,49918,0,0.00,2,2,0,2,49183,50000,245,50000,0,0,0,0,0.00,0.00,0.00,0.00
2017-06-13 08:50:00,2,49590,0,0.00,2,2,0,2,47741,50000,826,50000,0,0,0,0,0.00,0.00,0.00,0.00
2017-06-13 09:00:00,2,49716,0,0.00,2,2,0,2,47253,50000,822,50000,0,0,0,0,0.00,0.00,0.00,0.00
2017-06-13 09:10:00,2,50000,0,0.00,2,2,0,2,50000,50000,0,50000,0,0,0,0,0.00,0.00,0.00,0.00
2017-06-13 09:20:00,2,49622,0,0.00,2,2,0,2,46358,50000,1089,50000,0,0,0,0,0.00,0.00,0.00,0.00
2017-06-13 09:30:00,2,49894,0,0.00,2,2,0,2,49417,50000,213,50000,0,0,0,0,0.00,0.00,0.00,0.00
2017-06-13 09:40:00,2,48816,0,0.00,2,2,0,2,39781,50000,3021,49987,0,0,0,0,0.00,0.00,0.00,0.00
2017-06-13 09:50:00,2,47826,0,0.00,2,2,0,2,40779,50000,2895,48854,0,0,0,0,0.00,0.00,0.00,0.00
2017-06-13 10:00:00,2,48269,0,0.00,2,2,0,2,43087,50000,2696,50000,0,0,0,0,0.00,0.00,0.00,0.00
2017-06-13 10:10:00,2,50000,0,0.00,2,2,0,2,50000,50000,0,50000,0,0,0,0,0.00,0.00,0.00,0.00
2017-06-13 10:20:00,2,48565,0,0.00,2,2,0,2,43988,50000,2271,50000,0,0,0,0,0.00,0.00,0.00,0.00
2017-06-13 10:30:00,2,47610,0,0.00,2,2,0,2,40246,50000,3193,49021,0,0,0,0,0.00,0.00,0.00,0.00
2017-06-13 10:40:00,2,49855,0,0.00,2,2,0,2,48889,50000,337,50000,0,0,0,0,0.00,0.00,0.00,0.00
2017-06-13 10:50:00,2,49146,0,0.00,2,2,0,2,45440,50000,1492,50000,0,0,0,0,0.00,0.00,0.00,0.00
2017-06-13 11:00:00,2,49673,0,0.00,2,2,0,2,46726,50000,982,50000,0,0,0,0,0.00,0.00,0.00,0.00
2017-06-13 11:10:00,2,50000,0,0.00,2,2,0,2,50000,50000,0,50000,0,0,0,0,0.00,0.00,0.00,0.00
2017-06-13 11:20:00,2,49948,0,0.00,2,2,0,2,49480,50000,156,50000,0,0,0,0,0.00,0.00,0.00,0.00
2017-06-13 11:30:00,2,49850,0,0.00,2,2,0,2,48495,50000,452,50000,0,0,0,0,0.00,0.00,0.00,0.00
2017-06-13 11:40:00,2,50000,0,0.00,2,2,0,2,50000,50000,0,50000,0,0,0,0,0.00,0.00,0.00,0.00
2017-06-13 11:50:00,2,49973,0,0.00,2,2,0,2,49726,50000,82,50000,0,0,0,0,0.00,0.00,0.00,0.00
2017-06-13 12:00:00,2,49801,0,0.00,2,2,0,2,48011,50000,597,50000,0,0,0,0,0.00,0.00,0.00,0.00
2017-06-13 12:10:00,2,49582,0,0.00,2,2,0,2,45815,50000,1256,50000,0,0,0,0,0.00,0.00,0.00,0.00
2017-06-13 12:20:00,2,50000,0,0.00,2,2,0,2,50000,50000,0,50000,0,0,0,0,0.00,0.00,0.00,0.00
2017-06-13 12:30:00,2,49277,0,0.00,2,2,0,2,46375,50000,1446,50000,0,0,0,0,0.00,0.00,0.00,0.00
2017-06-13 12:40:00,2,49716,0,0.00,2,2,0,2,48024,50000,620,50000,0,0,0,0,0.00,0.00,0.00,0.00
2017-06-13 12:50:00,2,50000,0,0.00,2,2,0,2,50000,50000,0,50000,0,0,0,0,0.00,0.00,0.00,0.00
2017-06-13 13:00:00,2,49838,0,0.00,2,2,0,2,48385,50000,484,50000,0,0,0,0,0.00,0.00,0.00,0.00
2017-06-13 13:10:00,2,50000,0,0.00,2,2,0,2,50000,50000,0,50000,0,0,0,0,0.00,0.00,0.00,0.00
2017-06-13 13:20:00,2,49998,0,0.00,2,2,0,2,49981,50000,6,50000,0,0,0,0,0.00,0.00,0.00,0.00
2017-06-13 13:30:00,2,49963,0,0.00,2,2,0,2,49626,50000,112,50000,0,0,0,0,0.00,0.00,0.00,0.00
2017-06-13 13:40:00,2,50000,0,0.00,2,2,0,2,50000,50000,0,50000,0,0,0,0,0.00,0.00,0.00,0.00
2017-06-13 13:50:00,2,50000,0,0.00,2,2,0,2,50000,50000,0,50000,0,0,0,0,0.00,0.00,0.00,0.00
2017-06-13 14:00:00,2,50000,0,0.00,2,2,0,2,50000,50000,0,50000,0,0,0,0,0.00,0.00,0.00,0.00
2017-06-13 14:10:00,2,46927,0,0.00,2,2,0,2,42134,50000,2837,47356,0,0,0,0,0.00,0.00,0.00,0.00
2017-06-13 14:20:00,2,32737,28,0.04,2,2,0,2,25480,43639,5414,31082,0,51,24,40,0.00,0.10,0.04,0.03
2017-06-13 14:30:00,2,37880,15,0.01,2,2,0,2,31432,50000,5713,36539,0,51,23,0,0.00,0.10,0.03,0.00
2017-06-13 14:40:00,2,47084,0,0.00,2,2,0,2,38517,50000,4528,49961,0,0,0,0,0.00,0.00,0.00,0.00
2017-06-13 14:50:00,2,37398,0,0.00,2,2,0,2,27848,47657,6642,39019,0,0,0,0,0.00,0.00,0.00,0.00
2017-06-13 15:00:00,2,45708,0,0.00,2,2,0,2,36183,50000,4925,47982,0,0,0,0,0.00,0.00,0.00,0.00
2017-06-13 15:10:00,2,49982,0,0.00,2,2,0,2,49817,50000,55,50000,0,0,0,0,0.00,0.00,0.00,0.00
2017-06-13 15:20:00,2,50000,0,0.00,2,2,0,2,50000,50000,0,50000,0,0,0,0,0.00,0.00,0.00,0.00
2017-06-13 15:30:00,2,50000,0,0.00,2,2,0,2,50000,50000,0,50000,0,0,0,0,0.00,0.00,0.00,0.00
2017-06-13 15:40:00,2,50000,0,0.00,2,2,0,2,50000,50000,0,50000,0,0,0,0,0.00,0.00,0.00,0.00
2017-06-13 15:50:00,2,49935,0,0.00,2,2,0,2,49348,50000,196,50000,0,0,0,0,0.00,0.00,0.00,0.00
2017-06-13 16:00:00,2,48032,0,0.00,2,2,0,2,36159,50000,4198,50000,0,0,0,0,0.00,0.00,0.00,0.00
2017-06-13 16:10:00,2,18845,0,0.00,2,2,0,2,7847,36503,10193,14490,0,0,0,0,0.00,0.00,0.00,0.00
2017-06-13 16:20:00,2,31268,13,0.00,2,2,0,2,13217,50000,12282,30140,0,51,20,0,0.00,0.00,0.00,0.00
2017-06-13 16:30:00,2,49410,0,0.00,2,2,0,2,47010,50000,927,50000,0,0,0,0,0.00,0.00,0.00,0.00
2017-06-13 16:40:00,2,44876,28,0.10,2,2,0,2,34665,50000,6117,48202,0,61,29,26,0.00,0.45,0.16,0.00
2017-06-13 16:50:00,2,49884,12,0.00,2,2,0,2,48839,50000,348,50000,0,41,19,0,0.00,0.00,0.00,0.00
2017-06-13 17:00:00,2,48066,30,0.06,2,2,0,2,40867,50000,3400,50000,0,61,30,26,0.00,0.35,0.11,0.00
2017-06-13 17:10:00,2,49829,26,0.04,2,2,0,2,48292,50000,512,50000,0,61,27,26,0.00,0.20,0.07,0.00
2017-06-13 17:20:00,2,49982,0,0.00,2,2,0,2,49823,50000,53,50000,0,0,0,0,0.00,0.00,0.00,0.00
2017-06-13 17:30:00,2,49919,0,0.00,2,2,0,2,49186,50000,244,50000,0,0,0,0,0.00,0.00,0.00,0.00
2017-06-13 17:40:00,2,34212,58,0.40,2,2,0,2,26411,41241,4424,33967,51,61,5,61,0.05,1.50,0.39,0.35
2017-06-13 17:50:00,2,41820,51,0.16,2,2,0,2,36826,45603,3454,42246,51,51,0,51,0.05,0.25,0.08,0.17
2017-06-13 18:00:00,2,28972,51,0.26,2,2,0,2,18443,50000,9339,27964,51,51,0,51,0.00,0.55,0.20,0.25
2017-06-13 18:10:00,2,15036,51,1.07,2,2,0,2,13502,16171,834,15262,51,52,0,51,0.35,2.65,0.72,0.82
2017-06-13 18:20:00,2,11728,61,2.84,2,2,0,2,8617,14560,1750,11711,61,61,0,61,1.35,5.35,1.15,2.58
2017-06-13 18:30:00,2,7166,61,7.82,2,2,0,2,5817,9529,1125,7267,61,62,0,61,3.55,11.80,2.48,8.25
2017-06-13 18:40:00,2,5997,61,10.00,0,2,1,2,4561,7966,995,5936,61,62,0,61,6.70,18.85,3.38,9.25
2017-06-13 18:50:00,2,4989,62,11.38,2,2,0,2,3994,6875,821,4960,61,62,0,62,4.95,17.40,3.56,11.35
2017-06-13 19:00:00,2,4281,63,10.62,2,2,0,2,3579,4860,372,4276,61,67,2,62,6.20,17.55,3.63,9.68
2017-06-13 19:10:00,2,3904,63,14.52,2,2,0,2,3074,5260,770,3585,61,67,3,62,8.15,26.95,5.80,13.30
2017-06-13 19:20:00,2,4210,67,6.25,2,2,0,2,3171,5606,811,3849,67,67,0,67,3.70,9.80,1.66,6.10
2017-06-13 19:30:00,2,8629,62,4.87,2,2,0,2,6341,10448,1220,8580,61,67,2,61,2.35,8.90,1.95,4.85
2017-06-13 19:40:00,2,11765,61,3.96,2,2,0,2,9579,14536,1322,11806,61,61,0,61,2.35,6.35,1.17,4.10
2017-06-13 19:50:00,2,11121,61,6.92,2,2,0,2,7449,12413,1341,11296,61,62,0,61,3.65,11.30,2.31,6.78
2017-06-13 20:00:00,2,9818,62,10.85,2,2,0,2,5400,11579,1750,10362,61,62,0,62,4.90,20.05,4.38,11.00
2017-06-13 20:10:00,2,10490,62,11.07,2,2,0,2,8124,11483,907,10641,61,62,0,62,6.20,16.50,3.12,11.35
2017-06-13 20:20:00,2,11412,61,8.25,2,2,0,2,7789,14117,1629,11492,61,62,0,61,2.80,16.55,3.55,7.47
2017-06-13 20:30:00,2,8151,62,14.71,2,2,0,2,5083,11476,2298,7868,61,62,0,62,8.30,23.45,5.54,12.70
2017-06-13 20:40:00,2,8881,61,8.23,2,2,0,2,4827,11509,1932,9334,61,62,0,61,3.35,21.45,5.06,6.38
2017-06-13 20:50:00,2,10213,61,6.75,2,2,0,2,8707,13274,1364,9906,61,61,0,61,5.10,9.80,1.19,6.47
2017-06-13 21:00:00,2,7046,62,10.82,2,2,0,2,4935,9435,1590,6712,61,62,0,62,5.70,14.40,2.88,12.00
2017-06-13 21:10:00,2,3604,66,8.12,2,2,0,2,2468,4066,444,3657,62,68,2,67,2.40,21.50,5.21,7.47
2017-06-13 21:20:00,2,4998,65,9.80,2,2,0,2,3996,6046,693,4964,61,67,3,67,5.75,15.00,2.86,9.38
2017-06-13 21:30:00,2,6400,62,9.77,2,2,0,2,5275,7523,854,6398,61,62,0,62,6.35,12.50,2.12,9.93
2017-06-13 21:40:00,2,6285,61,8.07,2,2,0,2,4907,7959,1201,6126,61,62,0,61,6.40,10.45,1.46,7.47
2017-06-13 21:50:00,2,6082,61,7.28,2,2,0,2,5267,7073,648,6207,61,61,0,61,5.55,9.05,1.29,7.25
2017-06-13 22:00:00,2,7390,61,6.08,2,2,0,2,5195,10084,1625,7432,61,62,0,61,3.50,10.40,2.12,5.90
2017-06-13 22:10:00,2,9146,61,4.05,2,2,0,2,6547,11080,1222,9335,61,61,0,61,2.60,6.20,1.18,3.67
2017-06-13 22:20:00,2,7814,61,5.20,2,2,0,2,6353,9200,835,7950,61,61,0,61,3.30,9.65,1.99,4.38
2017-06-13 22:30:00,2,9401,61,3.56,2,2,0,2,8349,10494,631,9261,61,61,0,61,2.75,4.60,0.55,3.50
2017-06-13 22:40:00,2,10414,61,5.71,2,2,0,2,7960,18213,2928,9178,61,61,0,61,1.50,9.15,2.15,5.10
2017-06-13 22:50:00,2,17750,61,1.98,2,2,0,2,12583,21912,2374,17672,61,61,0,61,1.05,4.85,1.11,1.50
2017-06-13 23:00:00,2,14581,61,2.51,2,2,0,2,10836,19648,2966,13475,61,61,0,61,1.20,3.70,0.84,2.35
2017-06-13 23:10:00,2,13630,61,2.29,2,2,0,2,11823,16282,1403,13390,61,61,0,61,1.25,4.65,1.07,1.80
2017-06-13 23:20:00,2,33243,59,0.28,2,2,0,2,20962,50000,10488,31498,51,61,4,61,0.10,0.70,0.20,0.20
2017-06-13 23:30:00,2,46073,67,0.11,2,2,0,2,39923,50000,4165,48000,61,71,5,71,0.00,0.30,0.10,0.05
2017-06-13 23:40:00,2,39196,76,0.16,2,2,0,2,26043,50000,6771,38082,71,77,2,77,0.00,0.45,0.16,0.10
2017-06-13 23:50:00,2,43196,55,0.07,2,2,0,2,38577,50000,4111,40924,41,77,13,51,0.00,0.15,0.07,0.03
